Weather History for Monett, MO

Change the Weather History Date:

Thursday, November 29, 2012

  Actual Average (KJLN) Record (KJLN)
Temperature  
Mean Temperature 50 °F 42 °F  
Max Temperature 64 °F 52 °F 70 °F (1973)
Min Temperature 35 °F 32 °F 7 °F (1976)
Degree Days  
Heating Degree Days 16 23  
Month to date heating degree days 482  
Since 1 July heating degree days 734  
Cooling Degree Days 0 0  
Month to date cooling degree days 5  
Year to date cooling degree days 1696  
Moisture  
Dew Point 32 °F    
Average Humidity 59    
Maximum Humidity 87    
Minimum Humidity 30    
Precipitation  
Precipitation 0.00 in 0.12 in 1.20 in (1975)
Month to date precipitation 3.66  
Year to date precipitation 43.61  
Sea Level Pressure  
Sea Level Pressure 30.13 in    
Wind  
Wind Speed 11 mph (SSE)    
Max Wind Speed 21 mph    
Max Gust Speed 26 mph    
Visibility 10 miles    
Events      
T = Trace of Precipitation, MM = Missing Value Source: NWS Daily Summary

Daily Weather History Graph

Daily Weather History Graph

Search for Another Location

Airport:

Trip Planner

Search our weather history database for the weather conditions in past years. The results will help you decide how hot, cold, wet, or windy it might be!

Date:

Astronomy

Nov. 29, 2012 Rise Set
Actual Time 7:09 AM CST 4:59 PM CST
Civil Twilight 6:40 AM CST 5:28 PM CST
Nautical Twilight 6:08 AM CST 6:00 PM CST
Astronomical Twilight 5:37 AM CST 6:31 PM CST
Moon 6:03 PM CST (11/29) 7:56 AM CST (11/29)
Length of Visible Light 10h 47m
Length of Day
9h 50m
Full, 99% of the Moon is Illuminated
Nov 29
Full
Dec 6
Last Quarter
Dec 13
New
Dec 19
First Quarter
Dec 28
Full

Hourly Weather History & Observations

Time (CST) Temp. Windchill Dew Point Humidity Pressure Visibility Wind Dir Wind Speed Gust Speed Precip Events Conditions
12:15 AM 39.2 °F 32.5 °F 32.0 °F 75% 30.21 in 10.0 mi SE 10.4 mph - N/A   Clear
12:35 AM 37.4 °F 30.8 °F 32.0 °F 81% 30.21 in 10.0 mi SE 9.2 mph - N/A   Clear
12:55 AM 37.4 °F 30.8 °F 32.0 °F 81% 30.21 in 10.0 mi SE 9.2 mph - N/A   Clear
1:15 AM 35.6 °F 28.6 °F 32.0 °F 87% 30.20 in 10.0 mi SE 9.2 mph - N/A   Clear
1:35 AM 35.6 °F 29.2 °F 30.2 °F 81% 30.20 in 10.0 mi SE 8.1 mph - N/A   Clear
1:55 AM 35.6 °F 29.2 °F 30.2 °F 81% 30.20 in 10.0 mi SE 8.1 mph - N/A   Clear
2:15 AM 35.6 °F 28.6 °F 32.0 °F 87% 30.20 in 10.0 mi SE 9.2 mph - N/A   Clear
2:35 AM 35.6 °F 28.6 °F 32.0 °F 87% 30.20 in 10.0 mi SE 9.2 mph - N/A   Clear
2:55 AM 35.6 °F 28.6 °F 32.0 °F 87% 30.20 in 10.0 mi SE 9.2 mph - N/A   Clear
3:15 AM 35.6 °F 28.6 °F 32.0 °F 87% 30.20 in 10.0 mi SE 9.2 mph - N/A   Clear
3:35 AM 35.6 °F 28.6 °F 32.0 °F 87% 30.19 in 10.0 mi SE 9.2 mph - N/A   Clear
3:55 AM 35.6 °F 28.6 °F 32.0 °F 87% 30.18 in 10.0 mi SE 9.2 mph - N/A   Clear
4:15 AM 35.6 °F 28.6 °F 32.0 °F 87% 30.18 in 10.0 mi SE 9.2 mph - N/A   Clear
4:35 AM 35.6 °F 28.6 °F 32.0 °F 87% 30.18 in 10.0 mi SE 9.2 mph - N/A   Clear
4:55 AM 37.4 °F 31.4 °F 32.0 °F 81% 30.18 in 10.0 mi SSE 8.1 mph - N/A   Clear
5:15 AM 37.4 °F 31.4 °F 32.0 °F 81% 30.18 in 10.0 mi SE 8.1 mph - N/A   Clear
5:35 AM 37.4 °F 30.8 °F 32.0 °F 81% 30.18 in 10.0 mi SSE 9.2 mph - N/A   Clear
5:55 AM 37.4 °F 30.3 °F 32.0 °F 81% 30.18 in 10.0 mi SSE 10.4 mph - N/A   Clear
6:15 AM 37.4 °F 31.4 °F 32.0 °F 81% 30.18 in 10.0 mi SSE 8.1 mph - N/A   Clear
6:35 AM 35.6 °F 30.7 °F 32.0 °F 87% 30.18 in 10.0 mi SSE 5.8 mph - N/A   Clear
6:55 AM 37.4 °F 31.4 °F 32.0 °F 81% 30.18 in 10.0 mi SSE 8.1 mph - N/A   Clear
7:15 AM 37.4 °F 32.1 °F 30.2 °F 75% 30.18 in 10.0 mi SSE 6.9 mph - N/A   Clear
7:35 AM 39.2 °F 33.0 °F 32.0 °F 75% 30.18 in 10.0 mi SSE 9.2 mph - N/A   Clear
7:55 AM 42.8 °F 37.0 °F 32.0 °F 66% 30.18 in 10.0 mi South 10.4 mph - N/A   Clear
8:15 AM 46.4 °F 40.4 °F 32.0 °F 57% 30.18 in 10.0 mi South 13.8 mph - N/A   Clear
8:35 AM 46.4 °F 39.8 °F 32.0 °F 57% 30.17 in 10.0 mi South 16.1 mph 21.9 mph N/A   Clear
8:55 AM 48.2 °F - 32.0 °F 54% 30.17 in 10.0 mi South 13.8 mph - N/A   Clear
9:15 AM 50.0 °F - 33.8 °F 54% 30.17 in 10.0 mi South 16.1 mph - N/A   Clear
9:35 AM 50.0 °F - 33.8 °F 54% 30.17 in 10.0 mi South 20.7 mph 26.5 mph N/A   Clear
9:55 AM 51.8 °F - 33.8 °F 50% 30.16 in 10.0 mi South 20.7 mph 25.3 mph N/A   Clear
10:15 AM 51.8 °F - 33.8 °F 50% 30.17 in 10.0 mi SSW 13.8 mph 20.7 mph N/A   Clear
10:35 AM 53.6 °F - 35.6 °F 51% 30.16 in 10.0 mi SSW 16.1 mph 20.7 mph N/A   Clear
10:55 AM 55.4 °F - 35.6 °F 47% 30.15 in 10.0 mi SSW 18.4 mph 23.0 mph N/A   Clear
11:15 AM 55.4 °F - 35.6 °F 47% 30.14 in 10.0 mi SSW 19.6 mph 25.3 mph N/A   Clear
11:35 AM 59.0 °F - 35.6 °F 42% 30.13 in 10.0 mi South 18.4 mph 24.2 mph N/A   Clear
11:55 AM 59.0 °F - 35.6 °F 42% 30.13 in 10.0 mi SSW 16.1 mph 20.7 mph N/A   Clear
12:15 PM 60.8 °F - 35.6 °F 39% 30.12 in 10.0 mi South 13.8 mph - N/A   Clear
12:35 PM 62.6 °F - 33.8 °F 34% 30.11 in 10.0 mi South 17.3 mph - N/A   Clear
12:55 PM 62.6 °F - 32.0 °F 32% 30.10 in 10.0 mi SSW 17.3 mph 24.2 mph N/A   Clear
1:15 PM 62.6 °F - 32.0 °F 32% 30.09 in 10.0 mi South 15.0 mph 24.2 mph N/A   Clear
1:35 PM 62.6 °F - 33.8 °F 34% 30.08 in 10.0 mi South 16.1 mph - N/A   Clear
1:55 PM 64.4 °F - 32.0 °F 30% 30.08 in 10.0 mi SSW 20.7 mph 25.3 mph N/A   Clear
2:15 PM 64.4 °F - 32.0 °F 30% 30.08 in 10.0 mi SSW 13.8 mph 25.3 mph N/A   Clear
2:35 PM 64.4 °F - 32.0 °F 30% 30.07 in 10.0 mi SSW 16.1 mph 24.2 mph N/A   Clear
2:55 PM 64.4 °F - 32.0 °F 30% 30.07 in 10.0 mi SSW 16.1 mph 21.9 mph N/A   Clear
3:15 PM 64.4 °F - 32.0 °F 30% 30.07 in 10.0 mi SSW 16.1 mph 21.9 mph N/A   Clear
3:35 PM 62.6 °F - 32.0 °F 32% 30.07 in 10.0 mi South 15.0 mph 18.4 mph N/A   Clear
3:55 PM 62.6 °F - 32.0 °F 32% 30.07 in 10.0 mi SSW 13.8 mph 18.4 mph N/A   Clear
4:15 PM 60.8 °F - 32.0 °F 34% 30.06 in 10.0 mi SSW 12.7 mph - N/A   Clear
4:35 PM 59.0 °F - 32.0 °F 36% 30.06 in 10.0 mi South 12.7 mph - N/A   Clear
4:55 PM 55.4 °F - 32.0 °F 41% 30.06 in 10.0 mi SSE 11.5 mph - N/A   Clear
5:15 PM 55.4 °F - 32.0 °F 41% 30.06 in 10.0 mi South 11.5 mph - N/A   Clear
5:35 PM 53.6 °F - 32.0 °F 44% 30.06 in 10.0 mi South 10.4 mph - N/A   Clear
5:55 PM 53.6 °F - 32.0 °F 44% 30.06 in 10.0 mi South 11.5 mph - N/A   Clear
6:15 PM 51.8 °F - 32.0 °F 47% 30.06 in 10.0 mi SSE 8.1 mph - N/A   Clear
6:35 PM 50.0 °F - 32.0 °F 50% 30.05 in 10.0 mi SE 10.4 mph - N/A   Clear
6:55 PM 48.2 °F - 32.0 °F 54% 30.05 in 10.0 mi SSE 9.2 mph - N/A   Clear
7:15 PM 50.0 °F - 32.0 °F 50% 30.05 in 10.0 mi SSE 10.4 mph - N/A   Clear
7:35 PM 50.0 °F - 32.0 °F 50% 30.05 in 10.0 mi SSE 10.4 mph - N/A   Clear
7:55 PM 48.2 °F - 32.0 °F 54% 30.05 in 10.0 mi SSE 9.2 mph - N/A   Clear
8:15 PM 48.2 °F - 32.0 °F 54% 30.05 in 10.0 mi SSE 9.2 mph - N/A   Clear
8:35 PM 48.2 °F - 32.0 °F 54% 30.06 in 10.0 mi SSE 9.2 mph - N/A   Clear
8:55 PM 46.4 °F 41.9 °F 32.0 °F 57% 30.07 in 10.0 mi SSE 9.2 mph - N/A   Clear
9:15 PM 46.4 °F 42.9 °F 32.0 °F 57% 30.08 in 10.0 mi SSE 6.9 mph - N/A   Clear
9:35 PM 44.6 °F 41.4 °F 32.0 °F 61% 30.08 in 10.0 mi South 5.8 mph - N/A   Clear
9:55 PM 44.6 °F 41.4 °F 32.0 °F 61% 30.09 in 10.0 mi SSE 5.8 mph - N/A   Clear
10:15 PM 44.6 °F 41.4 °F 32.0 °F 61% 30.10 in 10.0 mi South 5.8 mph - N/A   Clear
10:35 PM 44.6 °F 40.7 °F 32.0 °F 61% 30.10 in 10.0 mi South 6.9 mph - N/A   Clear
10:55 PM 44.6 °F 40.7 °F 32.0 °F 61% 30.10 in 10.0 mi South 6.9 mph - N/A   Clear
11:15 PM 44.6 °F 40.2 °F 32.0 °F 61% 30.10 in 10.0 mi South 8.1 mph - N/A   Clear
11:35 PM 44.6 °F 40.7 °F 32.0 °F 61% 30.11 in 10.0 mi South 6.9 mph - N/A   Clear
11:55 PM 42.8 °F 38.6 °F 30.2 °F 61% 30.12 in 10.0 mi South 6.9 mph - N/A   Clear